Temp
14 14 14 16 19 21 22 23 27 26 26 26 25 26 27 27 27 24 18 19 19 17 15 17 16 16 15 15 15 15 15 16 16 15 15 15 15 13 13 12 12 11 11 11 11 13 14 14 14
12 13 14 18 19 20 23 25 25 26 26 24 24 24 25 26 22 18 18 19 18 17 15 14 16 15 15 15 15 15 15 16 15 13 13 11 11 11 11 11 11 12 14 13 13 14 14 14 14
12 13 17 19 19 20 23 26 26 26 24 23 24 22 25 24 21 18 18 18 18 17 15 14 15 15 15 15 15 15 15 15 13 11 11 10 10 11 11 11 12 14 14 14 14 14 14 14 14
13 14 16 18 20 22 23 25 25 25 24 23 24 24 21 18 19 18 17 17 18 15 15 15 15 15 15 15 15 16 15 14 11 11 11 10 11 11 10 11 13 13 13 14 14 14 13 13 14
13 17 18 18 19 22 24 24 25 25 24 24 23 24 22 17 17 17 17 18 17 15 15 15 14 14 15 15 15 14 13 11 11 11 11 10 11 10 11 12 13 13 13 13 14 13 13 13 13
15 17 18 19 20 22 23 23 22 23 24 24 22 23 21 16 15 15 16 16 15 15 15 15 14 14 14 15 15 12 11 11 11 10 10 10 10 10 11 12 13 13 13 13 13 13 13 13 12
15 17 17 19 20 21 22 22 23 22 23 24 22 23 19 15 15 15 15 15 15 14 14 14 14 14 14 14 12 11 11 11 10 10 10 10 10 10 11 12 12 13 13 13 13 13 13 13 12
14 16 17 19 19 20 22 21 21 22 22 23 20 22 22 16 14 14 14 14 14 14 13 13 13 12 11 11 11 10 10 10 10 10 10 10 10 12 12 12 12 12 12 12 13 13 13 12 11
13 15 16 18 19 20 20 20 20 19 18 19 20 19 17 16 14 14 14 14 14 13 13 13 12 12 11 11 10 10 10 10 9 9 10 10 10 11 9 12 12 12 12 12 12 12 12 12 11
13 15 17 19 20 19 19 18 18 19 18 18 19 17 15 14 14 14 14 14 14 13 13 13 13 12 12 10 10 10 10 10 9 9 10 9 9 9 12 12 12 12 12 11 12 11 11 10 10
13 14 18 18 16 17 17 17 16 17 17 19 19 18 16 13 13 14 14 14 13 13 13 13 13 13 12 10 10 10 10 10 9 9 9 9 10 11 11 11 11 11 11 11 11 10 9 9 9
13 14 16 16 15 15 15 16 17 17 17 18 17 18 18 13 13 13 14 13 13 13 13 13 13 12 11 10 10 10 10 10 9 9 10 9 10 10 11 11 11 11 11 11 11 12 11 10 9
13 14 14 14 14 13 14 14 15 16 16 16 17 15 15 16 14 13 14 13 13 12 12 12 12 12 12 11 11 11 10 10 9 9 9 9 9 9 10 11 11 11 11 11 11 11 12 11 10
15 14 14 14 13 13 13 13 14 15 15 16 15 15 15 15 14 13 13 13 13 12 12 12 12 12 11 11 11 10 10 10 9 9 9 9 9 9 10 11 11 11 11 11 11 11 11 11 10
14 14 14 14 13 13 13 13 13 15 15 15 15 15 15 15 14 13 13 13 13 12 11 11 11 11 11 10 10 10 9 9 9 9 9 9 9 10 11 11 11 11 11 11 11 11 11 10 10
13 14 12 15 14 14 12 13 17 15 15 15 15 15 15 15 15 13 12 12 12 12 11 11 11 10 10 10 10 10 9 9 9 9 9 8 9 11 11 11 11 11 11 11 11 11 11 10 10
12 12 12 14 15 14 13 13 16 16 16 16 16 16 15 15 15 15 12 12 12 12 12 10 10 10 10 10 10 9 9 9 9 9 9 9 10 11 11 11 11 11 11 11 11 11 11 10 10
10 11 13 14 14 14 14 13 16 16 16 17 17 16 16 15 15 15 12 12 11 11 11 11 11 10 10 10 9 9 9 9 9 9 9 10 10 10 11 11 11 11 11 11 11 11 11 10 10
14 13 14 14 15 13 13 14 15 16 15 16 16 16 16 16 15 15 13 12 11 11 11 11 11 9 10 9 9 9 8 8 9 9 10 10 10 10 11 11 11 11 11 11 11 11 11 11 9
11 11 13 15 15 13 13 13 15 16 16 16 16 16 16 16 15 15 14 12 11 10 10 11 10 10 9 9 9 9 8 8 8 9 10 10 10 10 10 11 11 11 11 11 11 11 11 11 10
10 9 11 12 14 12 12 12 13 15 16 16 15 16 16 16 16 15 14 11 10 10 10 10 10 10 8 9 8 8 8 7 8 9 9 9 10 10 10 10 10 10 10 10 10 10 10 10 10
9 11 11 11 10 9 10 10 14 15 15 16 15 15 15 15 15 15 15 12 10 10 10 10 10 11 9 7 8 9 9 8 8 9 10 9 9 9 10 10 10 10 10 10 10 10 10 10 9
10 11 10 11 9 10 8 8 13 16 16 17 17 16 15 15 15 15 15 13 10 10 10 10 10 9 8 7 7 10 10 9 9 9 9 9 9 9 9 9 9 10 10 10 9 9 9 9 9
12 12 11 10 9 7 10 10 12 15 16 17 17 17 16 15 15 15 15 13 11 9 9 10 10 9 9 9 6 8 10 9 9 8 8 9 9 8 9 9 9 9 9 9 9 9 9 9 8
9 9 7 7 7 9 11 11 12 16 16 17 17 17 16 15 15 15 15 14 11 9 9 9 10 9 7 10 7 7 9 10 10 9 9 9 9 8 8 9 9 9 9 9 9 8 8 8 8
10 8 8 8 10 10 13 9 13 16 17 17 16 16 16 16 16 15 14 13 11 9 8 9 9 9 9 8 8 6 7 10 10 10 9 9 9 9 8 8 8 8 8 8 8 8 8 7 7
8 7 10 8 7 10 13 14 16 16 15 16 16 16 16 15 16 15 14 13 11 8 9 9 9 9 9 9 8 7 7 9 9 9 9 9 9 9 9 8 8 8 8 8 8 7 7 7 6
8 10 6 6 7 9 12 13 14 14 15 16 16 16 16 15 15 15 14 13 11 8 8 9 9 9 9 8 8 8 7 8 9 9 9 9 9 9 8 8 7 7 7 7 7 7 7 6 6
5 6 6 8 8 8 11 13 16 15 15 14 14 14 15 15 15 15 14 14 12 9 8 9 8 8 9 9 9 7 6 8 9 9 9 9 9 8 8 8 7 7 7 7 6 6 6 6 6
4 5 8 8 8 10 11 11 15 13 13 13 14 13 13 12 13 15 14 14 12 10 8 8 8 9 11 10 8 6 6 8 9 9 9 9 9 8 8 7 7 7 6 6 6 6 5 5 5
Height
1501 1504 1507 1509 1508 1491 1481 1476 1465 1469 1471 1470 1471 1471 1471 1470 1472 1482 1486 1490 1493 1497 1499 1503 1509 1513 1516 1517 1519 1522 1524 1524 1525 1527 1527 1528 1529 1530 1531 1532 1533 1534 1534 1534 1535 1535 1535 1536 1537
1501 1503 1506 1504 1498 1488 1473 1468 1464 1468 1468 1474 1474 1476 1476 1475 1478 1482 1486 1489 1493 1498 1500 1504 1508 1512 1514 1518 1520 1523 1524 1525 1526 1527 1528 1529 1530 1532 1533 1534 1535 1535 1535 1536 1536 1537 1538 1538 1539
1499 1502 1504 1496 1489 1481 1472 1457 1461 1468 1470 1476 1475 1477 1475 1476 1482 1484 1486 1489 1494 1499 1502 1504 1507 1511 1514 1518 1521 1523 1524 1525 1527 1528 1529 1531 1532 1533 1534 1535 1535 1536 1537 1538 1539 1539 1540 1541 1542
1500 1503 1501 1489 1479 1470 1470 1459 1461 1467 1469 1475 1474 1474 1479 1480 1483 1485 1487 1490 1494 1497 1501 1504 1507 1510 1514 1518 1521 1522 1524 1526 1528 1529 1531 1533 1534 1535 1536 1536 1537 1538 1539 1540 1541 1542 1543 1544 1545
1499 1496 1491 1484 1478 1471 1462 1463 1460 1461 1467 1471 1474 1471 1475 1480 1482 1484 1488 1492 1493 1494 1499 1504 1507 1511 1514 1518 1520 1522 1524 1526 1529 1531 1532 1534 1536 1537 1538 1539 1539 1541 1542 1542 1543 1544 1545 1546 1547
1497 1491 1484 1478 1470 1465 1464 1464 1467 1467 1467 1468 1474 1472 1475 1480 1480 1483 1488 1492 1493 1494 1497 1501 1507 1511 1515 1517 1520 1523 1524 1526 1529 1532 1534 1536 1538 1538 1539 1540 1542 1543 1544 1544 1545 1546 1547 1548 1550
1492 1486 1479 1471 1466 1462 1461 1465 1465 1467 1467 1467 1472 1470 1475 1478 1480 1482 1485 1490 1493 1496 1497 1500 1505 1510 1514 1517 1519 1522 1525 1527 1530 1533 1535 1537 1538 1539 1541 1542 1544 1545 1545 1546 1547 1548 1549 1550 1552
1490 1485 1475 1468 1468 1464 1461 1464 1466 1466 1467 1468 1471 1471 1470 1476 1479 1482 1485 1489 1492 1494 1498 1501 1504 1509 1513 1517 1520 1523 1525 1528 1530 1533 1535 1536 1539 1541 1542 1544 1545 1546 1547 1548 1549 1550 1551 1553 1555
1489 1483 1471 1464 1462 1459 1462 1463 1466 1469 1471 1469 1472 1475 1476 1474 1478 1481 1485 1488 1492 1494 1499 1503 1505 1510 1514 1517 1520 1524 1526 1529 1530 1533 1535 1538 1540 1542 1544 1545 1546 1548 1549 1550 1551 1553 1554 1556 1558
1482 1471 1461 1456 1456 1459 1461 1465 1465 1467 1469 1469 1470 1475 1476 1475 1477 1479 1481 1484 1489 1493 1498 1503 1506 1509 1514 1515 1519 1523 1527 1530 1532 1533 1537 1541 1543 1543 1544 1546 1548 1549 1551 1553 1554 1555 1557 1559 1561
1471 1460 1454 1456 1461 1462 1461 1462 1465 1465 1464 1463 1464 1468 1472 1474 1475 1477 1480 1483 1486 1491 1497 1501 1506 1510 1511 1511 1517 1522 1528 1532 1534 1535 1538 1541 1540 1543 1545 1548 1550 1551 1553 1554 1556 1557 1560 1562 1563
1464 1458 1457 1455 1457 1460 1460 1462 1460 1459 1459 1460 1462 1464 1465 1470 1473 1474 1477 1480 1484 1490 1495 1500 1505 1509 1512 1513 1517 1520 1528 1531 1533 1536 1538 1539 1541 1543 1546 1548 1551 1552 1553 1555 1556 1558 1559 1561 1564
1454 1455 1454 1457 1457 1458 1460 1457 1456 1452 1456 1457 1459 1461 1463 1464 1470 1472 1475 1477 1482 1486 1492 1498 1502 1506 1511 1514 1518 1521 1524 1528 1532 1534 1537 1539 1541 1544 1546 1548 1551 1553 1554 1556 1557 1559 1561 1562 1564
1443 1448 1450 1451 1452 1454 1454 1454 1453 1445 1451 1452 1454 1456 1458 1460 1464 1469 1470 1473 1475 1482 1488 1494 1499 1503 1508 1512 1515 1519 1522 1526 1530 1533 1536 1539 1541 1543 1545 1548 1551 1553 1555 1557 1559 1560 1562 1563 1564
1442 1443 1443 1440 1446 1447 1450 1443 1436 1441 1443 1445 1447 1450 1452 1454 1458 1462 1467 1469 1471 1478 1482 1488 1495 1500 1504 1508 1513 1516 1520 1524 1527 1531 1534 1538 1539 1542 1545 1547 1551 1553 1555 1558 1559 1561 1562 1564 1565
1439 1438 1432 1423 1436 1441 1448 1418 1420 1429 1434 1434 1439 1442 1445 1448 1451 1455 1460 1466 1467 1472 1477 1484 1489 1496 1500 1504 1510 1513 1517 1521 1525 1528 1532 1536 1538 1542 1545 1547 1550 1553 1556 1558 1560 1561 1563 1564 1566
1432 1418 1416 1421 1423 1429 1436 1418 1418 1422 1424 1425 1430 1434 1438 1441 1444 1449 1453 1459 1464 1466 1472 1478 1484 1490 1496 1501 1506 1512 1513 1518 1522 1526 1529 1534 1537 1541 1545 1547 1550 1553 1556 1558 1560 1562 1563 1565 1566
1402 1411 1408 1403 1413 1418 1419 1411 1413 1415 1418 1417 1420 1424 1428 1433 1437 1443 1446 1452 1458 1463 1468 1475 1478 1485 1490 1496 1502 1507 1512 1515 1518 1523 1527 1531 1536 1540 1544 1547 1549 1553 1556 1558 1560 1562 1564 1565 1566
1387 1396 1395 1397 1403 1410 1410 1405 1407 1411 1415 1413 1413 1415 1419 1425 1432 1437 1440 1444 1451 1457 1461 1466 1471 1481 1484 1488 1494 1501 1507 1511 1514 1519 1525 1530 1534 1539 1543 1546 1549 1552 1556 1558 1560 1562 1564 1565 1567
1398 1397 1389 1388 1395 1403 1405 1398 1401 1402 1401 1404 1407 1409 1411 1417 1423 1431 1434 1438 1444 1450 1454 1462 1467 1474 1483 1486 1489 1495 1502 1508 1512 1515 1523 1528 1532 1538 1542 1545 1548 1551 1555 1558 1560 1562 1564 1565 1566
1391 1395 1389 1391 1392 1402 1405 1397 1396 1394 1394 1396 1398 1402 1405 1410 1414 1422 1428 1431 1436 1441 1447 1454 1460 1460 1477 1484 1488 1492 1497 1506 1509 1513 1519 1526 1531 1536 1540 1544 1548 1551 1554 1557 1559 1562 1564 1565 1566
1380 1381 1394 1397 1403 1402 1406 1390 1381 1384 1381 1383 1388 1393 1396 1402 1407 1414 1419 1424 1429 1435 1443 1451 1457 1456 1467 1481 1484 1484 1489 1497 1508 1511 1516 1523 1529 1534 1539 1544 1548 1551 1554 1557 1559 1561 1563 1565 1566
1369 1382 1382 1388 1395 1397 1403 1400 1366 1370 1364 1362 1371 1379 1386 1393 1399 1404 1410 1416 1422 1430 1434 1443 1451 1457 1463 1474 1483 1481 1487 1496 1504 1509 1514 1520 1526 1533 1537 1542 1546 1549 1552 1555 1558 1559 1561 1563 1564
1368 1371 1374 1383 1388 1389 1378 1387 1357 1360 1356 1359 1365 1370 1376 1383 1389 1395 1403 1409 1415 1421 1427 1432 1440 1450 1456 1459 1481 1484 1486 1491 1499 1507 1512 1517 1524 1530 1535 1540 1544 1548 1552 1554 1556 1558 1559 1561 1562
1367 1370 1378 1379 1376 1367 1360 1371 1360 1348 1351 1354 1357 1362 1368 1375 1379 1386 1393 1399 1407 1412 1420 1425 1432 1437 1447 1451 1473 1487 1485 1489 1496 1502 1508 1513 1520 1526 1532 1537 1542 1546 1550 1552 1554 1556 1558 1559 1560
1343 1361 1359 1353 1348 1352 1345 1365 1348 1345 1349 1353 1358 1361 1362 1364 1370 1377 1384 1390 1396 1404 1411 1417 1425 1433 1441 1447 1463 1482 1484 1487 1494 1499 1505 1511 1516 1523 1530 1535 1539 1543 1547 1550 1553 1555 1556 1557 1558
1344 1353 1347 1357 1364 1348 1333 1337 1335 1340 1348 1350 1351 1354 1357 1359 1362 1368 1377 1383 1388 1394 1401 1407 1417 1427 1433 1445 1455 1464 1477 1485 1489 1496 1504 1509 1514 1520 1526 1532 1536 1540 1544 1548 1550 1552 1554 1555 1556
1343 1340 1361 1362 1352 1347 1331 1333 1335 1339 1341 1341 1345 1346 1347 1351 1357 1362 1370 1376 1383 1389 1397 1404 1409 1416 1424 1440 1449 1459 1470 1479 1485 1491 1498 1506 1512 1517 1522 1528 1534 1538 1542 1545 1547 1549 1551 1552 1554
1349 1344 1351 1346 1347 1347 1336 1330 1322 1333 1337 1345 1348 1347 1345 1347 1352 1357 1363 1370 1378 1386 1394 1401 1406 1414 1422 1429 1443 1451 1463 1471 1479 1485 1495 1502 1508 1514 1519 1524 1530 1535 1539 1542 1545 1547 1548 1549 1550
1353 1352 1343 1337 1341 1339 1338 1341 1328 1339 1347 1351 1350 1350 1350 1351 1352 1354 1357 1364 1370 1378 1387 1394 1400 1407 1414 1421 1437 1448 1457 1464 1470 1481 1489 1497 1504 1512 1516 1521 1527 1531 1536 1540 1543 1544 1546 1547 1547
Wind_Speed
9 7 6 6 7 8 19 20 18 6 6 8 2 10 8 10 8 1 10 13 24 26 27 26 24 21 22 23 19 14 8 5 4 4 4 4 4 5 6 11 12 13 14 13 14 13 14 14 13
5 6 6 10 10 17 15 20 20 12 3 4 6 4 6 9 5 7 14 17 23 26 25 25 25 23 24 21 17 12 8 6 6 7 7 12 13 14 14 15 14 13 13 14 13 14 16 17 17
5 8 10 5 15 20 17 17 17 14 7 8 6 4 3 2 4 9 9 24 27 25 24 26 26 26 23 20 16 10 8 7 9 11 13 13 14 15 14 14 13 13 13 13 13 15 15 15 17
5 6 8 10 19 18 25 22 13 18 9 11 11 5 3 2 6 8 19 25 26 26 28 26 27 25 23 20 12 10 9 9 13 14 15 15 15 15 14 14 13 13 13 13 14 15 15 15 17
8 7 10 15 21 22 17 14 24 13 12 13 11 10 3 4 8 13 21 24 26 30 28 26 27 25 22 15 12 10 12 16 15 16 16 15 15 15 14 13 13 13 13 13 13 14 15 16 18
8 7 9 15 20 17 17 19 21 15 18 11 6 12 5 6 11 19 25 25 27 30 28 30 27 23 17 14 12 16 16 17 17 17 16 16 15 14 14 13 13 13 13 13 14 15 16 17 20
14 9 15 18 17 14 14 16 18 17 21 20 12 11 4 10 13 20 26 29 27 27 29 31 27 22 16 14 16 19 20 18 19 18 17 16 15 14 14 13 13 13 13 14 15 15 16 18 20
10 6 12 12 15 19 16 15 18 19 21 15 2 7 9 15 16 25 28 29 26 28 28 27 25 22 20 18 20 21 19 20 20 18 18 16 15 14 13 14 14 14 15 15 16 16 18 19 21
8 7 11 18 14 13 7 9 14 8 11 15 9 10 4 18 18 25 29 29 27 26 26 23 24 22 20 19 22 21 20 21 20 19 17 16 14 15 14 14 15 16 17 18 19 19 19 20 20
13 10 15 11 12 7 6 8 11 11 13 19 18 12 5 13 22 27 35 35 34 28 27 26 24 23 22 21 25 23 21 19 15 17 17 13 13 13 16 17 17 18 18 19 20 20 20 16 16
11 16 16 11 11 11 12 13 12 14 16 18 18 19 15 15 25 29 37 37 37 32 29 26 25 24 24 23 24 24 18 16 15 17 15 15 16 16 18 19 18 19 19 18 18 16 14 13 12
14 17 21 7 14 15 14 16 17 21 21 15 8 15 16 18 28 32 38 40 37 31 29 27 26 25 21 22 21 21 18 18 17 17 16 15 17 18 19 19 19 17 16 16 15 16 17 17 14
24 18 20 24 21 18 17 20 21 18 22 22 19 13 14 20 26 32 36 42 42 34 30 29 28 27 23 23 22 21 19 18 17 18 16 16 17 17 17 19 19 18 17 16 16 16 15 15 15
10 24 26 20 21 22 20 22 25 16 27 22 22 24 20 19 22 31 36 40 44 38 34 30 29 28 25 23 22 21 21 19 18 18 18 17 17 19 19 20 19 18 18 17 16 15 14 14 13
29 23 17 22 25 13 13 22 30 31 24 22 29 29 28 26 23 29 33 40 45 43 37 36 32 28 26 24 23 23 22 21 19 18 19 18 20 21 21 20 20 19 18 16 16 14 13 12 11
16 24 23 22 23 23 13 24 14 32 33 33 28 25 29 31 28 26 31 39 43 46 40 39 34 30 27 26 25 24 24 21 20 20 22 21 21 23 22 22 21 19 17 16 14 13 12 11 9
19 24 30 21 15 20 21 21 22 18 25 32 32 31 29 30 33 30 33 36 45 45 45 40 36 32 31 28 27 24 24 23 22 22 23 24 24 23 22 22 21 19 17 15 14 13 11 10 9
34 30 24 22 23 21 23 29 16 10 22 26 25 30 30 31 33 32 32 37 43 44 46 45 40 36 35 32 30 27 26 24 24 24 25 27 25 24 22 22 21 18 17 15 14 12 12 10 9
18 28 25 24 23 20 23 26 23 23 26 24 23 28 29 31 30 31 33 36 43 43 46 50 44 39 40 39 36 32 30 28 28 27 27 28 26 25 23 23 21 19 17 16 14 13 11 10 9
29 25 26 16 20 17 21 26 21 22 23 26 28 29 28 28 31 31 32 37 42 45 47 50 48 41 40 42 40 36 34 32 30 30 29 29 28 26 24 23 22 20 18 16 15 12 10 9 6
28 28 29 24 16 16 19 24 25 26 24 28 30 32 31 31 29 34 34 35 41 46 49 50 50 46 37 42 40 37 35 33 33 32 32 30 30 28 25 23 22 20 18 16 14 11 9 7 8
30 28 23 22 16 13 14 14 20 26 28 26 31 33 32 32 33 33 36 37 41 47 49 48 51 46 41 35 42 45 43 41 36 35 35 33 30 29 26 24 22 20 18 15 13 11 8 7 6
30 21 25 25 25 17 10 8 16 19 22 21 22 33 33 33 34 36 37 39 37 44 50 50 51 44 51 38 40 46 43 40 37 36 35 34 32 29 27 25 22 20 18 15 12 10 7 5 4
26 23 19 23 18 17 28 16 17 19 19 19 17 25 27 32 37 37 37 38 40 42 47 54 53 52 52 46 34 42 43 44 40 38 37 36 34 31 29 26 23 20 17 14 11 9 6 4 3
22 22 11 11 12 15 22 16 19 5 7 14 19 24 26 31 35 36 38 41 41 42 44 53 53 53 52 48 41 35 43 43 42 40 39 39 37 35 32 28 24 21 17 14 11 8 5 3 1
31 20 10 14 14 15 15 10 15 17 16 22 21 17 18 27 31 35 38 42 43 45 49 53 54 53 52 48 45 34 39 43 40 38 39 40 39 36 33 29 26 22 18 14 11 7 4 2 1
19 22 25 12 1 5 12 16 13 10 12 14 15 20 23 25 23 32 37 41 45 48 52 54 55 58 51 48 48 43 42 44 41 38 38 40 38 36 34 31 27 23 19 15 11 7 4 2 2
11 18 9 6 4 9 11 15 11 7 7 5 9 13 20 24 25 27 34 39 43 45 50 52 53 55 56 51 48 51 51 46 40 39 39 40 38 37 35 32 27 23 19 15 12 8 5 3 4
5 3 6 4 6 3 10 12 9 10 9 9 6 8 4 12 20 24 29 34 42 42 46 50 55 57 54 48 46 50 53 50 45 40 39 39 38 37 35 32 28 24 20 16 12 9 6 4 5
5 8 11 6 9 11 7 5 5 14 9 6 6 7 8 6 8 19 25 33 41 44 47 50 55 58 53 50 55 53 49 51 47 46 42 38 37 37 36 33 29 25 20 15 12 9 6 6 6
Wind_Direction
234 254 260 253 240 233 247 233 249 230 241 235 272 218 216 224 194 39 144 153 164 159 163 165 166 168 170 179 183 187 191 204 193 179 173 161 148 128 120 104 107 99 96 93 91 89 86 85 88
224 243 213 247 239 241 234 236 230 233 210 184 157 232 251 230 74 113 142 152 158 159 163 164 170 172 180 184 188 190 199 194 178 158 141 121 116 110 108 104 105 106 102 98 97 93 89 85 83
189 189 208 219 237 242 247 232 231 228 154 208 204 248 211 61 117 147 161 156 154 160 160 170 170 178 184 189 196 195 189 180 162 144 132 123 118 117 112 115 109 107 104 102 97 92 93 91 87
170 182 251 242 238 237 247 261 178 234 183 236 234 211 156 130 150 161 155 153 155 161 171 172 176 183 184 195 199 188 178 164 143 135 129 123 123 119 114 114 112 107 105 102 100 98 96 95 92
180 216 234 233 246 258 269 266 268 257 215 209 228 231 166 148 140 155 156 157 163 167 175 177 180 186 191 193 190 177 161 153 143 138 132 127 125 122 121 122 115 110 107 105 104 103 102 100 98
201 237 233 236 245 247 246 245 256 251 243 229 231 252 149 152 157 159 164 164 177 172 174 176 185 192 191 189 180 156 151 146 145 138 132 133 128 129 124 122 118 115 114 112 108 105 104 103 103
239 224 248 254 259 257 247 245 239 246 244 244 228 247 137 162 164 163 169 170 175 174 174 179 183 189 186 181 164 152 151 149 143 141 137 135 135 128 127 125 123 123 121 116 111 109 108 106 106
238 261 249 239 250 254 242 245 245 243 250 250 280 238 218 182 179 173 180 164 175 172 179 175 175 167 162 160 154 156 155 150 148 147 142 142 134 132 126 128 129 125 120 117 113 109 108 107 107
212 237 244 241 241 246 246 232 244 238 269 253 252 265 359 178 185 183 177 168 177 177 174 165 162 162 160 161 160 159 161 159 155 147 147 125 128 122 128 135 130 124 120 116 113 110 107 108 108
207 231 237 243 244 240 223 217 240 229 240 242 239 240 208 204 191 190 180 178 180 170 168 175 167 164 162 171 162 165 165 158 156 153 133 140 137 146 144 136 131 125 122 117 115 111 102 95 100
217 239 234 236 245 241 237 236 233 237 243 244 233 232 210 211 195 198 191 188 177 173 172 173 172 168 167 173 165 165 155 162 166 160 153 152 165 148 141 135 134 130 126 122 122 114 118 119 109
246 236 244 238 229 228 232 244 251 239 240 244 235 238 221 210 201 199 198 189 187 177 176 175 175 173 173 161 168 164 169 173 166 164 161 162 154 153 149 146 143 139 134 132 129 125 122 117 109
227 247 238 248 240 235 243 243 247 250 239 237 233 221 223 212 216 213 212 198 194 178 180 177 179 175 174 171 169 171 173 169 169 166 165 162 158 154 154 152 149 144 138 134 131 128 123 120 118
237 237 244 237 236 240 242 247 238 238 235 235 228 223 225 221 215 221 204 195 197 187 181 177 179 176 177 176 175 172 173 167 171 169 166 162 160 159 156 154 151 146 141 136 133 128 125 122 121
242 249 237 235 239 221 223 250 237 235 231 232 231 229 226 222 216 218 221 204 202 198 187 181 180 180 179 177 176 171 164 173 168 170 170 163 166 164 157 155 150 146 141 136 133 131 127 124 121
243 237 243 228 222 228 215 252 226 229 224 229 228 224 224 224 220 215 216 217 200 207 194 189 181 182 180 177 176 174 170 170 170 170 169 169 167 165 163 157 151 146 141 138 134 131 128 124 119
241 235 227 234 217 219 204 257 243 226 214 227 228 228 226 225 222 217 213 219 209 208 204 190 184 184 181 179 175 177 171 169 171 172 171 169 170 168 164 159 153 148 144 140 135 131 131 131 128
227 228 235 235 213 214 221 237 248 200 226 231 227 227 226 224 222 218 209 215 219 213 211 197 191 187 182 179 176 175 170 169 174 174 175 173 171 168 167 160 155 150 146 141 138 137 134 133 128
228 219 229 235 238 205 224 241 231 237 240 243 236 228 227 222 223 220 211 215 216 207 211 203 195 193 182 180 175 175 173 174 174 177 179 175 174 172 168 164 158 152 149 143 138 137 134 131 128
234 247 246 239 212 222 236 247 245 242 240 238 234 230 230 225 217 218 209 214 217 212 208 212 201 194 186 185 181 179 173 180 176 178 179 179 177 174 172 168 163 158 153 149 142 136 131 126 124
225 223 234 242 235 221 235 251 248 249 241 241 236 235 229 231 220 215 211 209 212 208 207 211 200 186 189 186 182 174 181 178 181 180 179 181 181 177 175 172 167 162 159 155 149 144 138 128 113
239 219 230 237 237 234 196 251 230 235 237 232 231 232 227 226 224 219 212 204 213 208 209 213 203 198 195 187 187 189 189 186 189 184 183 182 181 180 177 175 171 167 162 158 153 147 144 134 123
231 229 219 235 227 235 220 241 246 250 244 227 220 223 224 219 222 218 215 205 209 205 205 210 208 204 194 186 190 198 196 193 188 187 184 183 182 182 179 178 174 172 168 165 161 155 149 138 121
247 243 244 232 233 231 230 222 263 235 229 232 226 226 219 217 217 217 214 203 203 209 202 204 208 207 202 196 203 200 197 193 190 188 185 184 184 183 182 180 180 177 175 173 169 165 158 145 122
222 224 225 220 215 231 216 216 231 227 253 250 240 236 221 217 216 216 210 201 196 204 195 202 207 203 194 192 202 197 201 200 197 195 192 188 187 186 185 184 183 182 181 179 177 174 168 158 106
206 208 215 201 210 228 183 217 230 227 253 246 248 250 250 218 216 213 212 201 194 198 195 198 204 203 198 200 198 198 205 204 202 200 197 195 192 190 188 188 187 187 186 184 183 184 184 183 344
217 214 226 257 134 251 215 231 250 252 263 248 240 241 233 233 228 213 210 202 195 196 195 196 202 204 198 193 198 198 211 208 202 200 201 200 196 193 192 193 191 190 190 190 192 195 202 237 317
210 210 188 205 231 223 202 224 205 176 210 213 252 251 244 236 229 213 209 205 199 197 196 195 203 200 196 198 199 196 209 210 205 202 202 203 200 197 196 194 194 193 193 194 198 204 215 251 301
250 198 193 239 206 251 221 220 205 235 71 52 355 18 317 215 218 222 211 207 200 196 194 193 198 198 194 193 200 202 208 209 205 202 204 205 203 200 198 196 195 196 196 198 202 211 225 254 293
241 308 221 222 198 226 266 260 135 95 77 20 3 10 11 3 292 220 215 206 197 195 193 194 197 199 196 191 204 197 200 207 203 202 202 205 203 201 199 197 197 196 197 201 209 218 230 259 285